Location: Augustenthal
(51.7167°N, 10.2833°E)
Time: 00:23:56
(UTC+00:00)

ISS - Pass Details

Date: 29 September 2021
Orbit: 417 x 423 km, 51.6° (Epoch: 19 October)

Event Time Altitude Azimuth Distance (km) Brightness Sun altitude
Rises 18:12:29 0° 280° (W) 2,366 2.3 -11.9°
Reaches altitude 10° 18:14:36 10° 278° (W) 1,501 0.6 -12.2°
Maximum altitude 18:17:57 71° 195° (SSW) 449 -3.7 -12.7°
Enters shadow 18:19:51 24° 115° (ESE) 927 -2.6 -13.0°
